[[{"header":{"parameterUnit":"m.s-1","parameterCategory":1,"la1":30.2991,"la2":30.254,"lo1":-89.0895,"lo2":-89.0444,"dy":0.0017,"dx":0.0017,"nx":28,"ny":28,"refTime":"2025-09-11T09:00:00:Z","depth":0,"parameterNumber":2,"parameterNumberName":"U-component_of_WINDS"},"data":[0,0,0,0,0,0,0,0,0,0,0,0,0,0,0,0,0,0,0,0,0,0,0,0,0,0,0,0,0,0,0,0,0,0,0,0,0,0,0,0,0,0,0,0,0,0,0,0,0,0,0,0,0,0,0,0,0,0,-0.9425,-0.9424,0,-0.9358,-0.9357,-0.9356,-0.9353,-0.9354,-0.9354,-0.9355,-0.9286,-0.9284,-0.9281,0,0,0,0,0,0,0,0,0,0,0,0,0,-0.9551,-0.9549,-0.9425,-0.9424,-0.9423,-0.9358,-0.9357,-0.9356,-0.9353,-0.9354,-0.9355,-0.9355,-0.9287,-0.9284,-0.9281,0,0,0,0,0,0,0,0,0,0,0,0,0,-0.9491,-0.9548,-0.9425,-0.9414,-0.9412,-0.9358,-0.9357,-0.9356,-0.9353,-0.9354,-0.9355,-0.9356,-0.9288,-0.9285,-0.9281,-0.9234,0,0,-0.9269,-0.9267,0,0,0,0,0,0,0,0,-0.9495,-0.9487,-0.9416,-0.9414,-0.9412,-0.9365,-0.9376,-0.9315,-0.9352,-0.9375,-0.9355,-0.9357,-0.9312,-0.9306,-0.9291,-0.923,-0.9227,-0.9269,-0.9266,-0.9265,-0.9264,0,0,0,0,0,0,0,-0.9499,-0.9489,-0.9398,-0.9415,-0.9413,-0.9412,-0.9405,-0.9364,-0.9338,-0.9373,-0.9373,-0.9365,-0.9311,-0.9294,-0.9289,-0.9226,-0.9269,-0.9265,-0.9263,-0.9261,-0.9125,-0.9124,0,0,0,0,0,0,-0.9505,-0.9493,-0.94,-0.9396,-0.9457,-0.9409,-0.9401,-0.9379,-0.9338,-0.9333,-0.9364,-0.9365,-0.93,-0.9294,-0.9287,-0.9229,-0.9265,-0.9261,-0.9259,-0.9126,-0.9125,-0.9123,0,0,0,0,0,0,-0.9508,-0.9497,-0.9403,-0.9444,-0.9432,-0.9406,-0.9381,-0.9377,-0.9361,-0.9331,-0.9326,-0.9352,-0.9301,-0.9292,-0.9247,-0.9227,-0.9259,-0.9256,-0.9128,-0.9126,-0.9124,-0.9114,0,0,0,0,0,0,-0.9511,-0.9498,-0.9479,-0.9444,-0.943,-0.9364,-0.938,-0.9375,-0.9354,-0.9355,-0.9319,-0.9314,-0.9301,-0.9253,-0.9243,-0.9222,-0.9253,-0.913,-0.9127,-0.9125,-0.9116,-0.9112,-0.9108,0,0,0,0,0,-0.9516,-0.9479,-0.9478,-0.9467,-0.9407,-0.9363,-0.9355,-0.9342,-0.9352,-0.9334,-0.9315,-0.9315,-0.9231,-0.9248,-0.9237,-0.9215,-0.9131,-0.9128,-0.9125,-0.9118,-0.9113,-0.9108,0,0,0,0,0,0,-0.9512,-0.9474,-0.9473,-0.9423,-0.9397,-0.9363,-0.9339,-0.9337,-0.9306,-0.9308,-0.9292,-0.9284,-0.924,-0.9223,-0.9243,-0.9168,-0.9182,-0.9177,-0.918,-0.9175,-0.9171,-0.9176,-0.925,0,0,0,0,0,-0.9506,-0.9473,-0.9442,-0.9401,-0.9388,-0.9366,-0.9346,-0.9338,-0.931,-0.9298,-0.9276,-0.9248,-0.9216,-0.9195,-0.9163,-0.9114,-0.9106,-0.9093,-0.9089,-0.9086,-0.9082,-0.9055,-0.9049,-0.9114,-0.9114,-0.9114,0,0,-0.9492,-0.9467,-0.9447,-0.94,-0.9378,-0.9345,-0.9356,-0.9321,-0.9296,-0.9293,-0.9249,-0.9232,-0.92,-0.9153,-0.9131,-0.9138,-0.9062,-0.9082,-0.908,-0.9077,-0.9052,-0.9046,-0.904,-0.9112,-0.9112,-0.9112,0,0,-0.9449,-0.9427,-0.9391,-0.9369,-0.9337,-0.9322,-0.9314,-0.928,-0.9269,-0.9225,-0.9222,-0.9193,-0.9137,-0.9114,-0.9096,-0.9047,-0.9046,-0.9037,-0.9017,-0.8991,-0.8986,-0.8982,-0.8965,-0.8959,-0.9033,-0.9033,-0.9032,0,-0.9436,-0.9386,-0.9373,-0.9338,-0.9317,-0.9313,-0.9277,-0.9256,-0.9215,-0.9201,-0.9209,-0.9139,-0.9117,-0.9065,-0.9054,-0.9039,-0.9029,-0.9041,-0.8988,-0.8983,-0.8979,-0.8962,-0.8956,-0.9032,-0.9032,-0.9032,-0.9032,0,-0.9372,-0.9338,-0.9313,-0.9273,-0.925,-0.9214,-0.9196,-0.9174,-0.9168,-0.9153,-0.9109,-0.9083,-0.9047,-0.9034,-0.9027,-0.8981,-0.8986,-0.8991,-0.9005,-0.8972,-0.8956,-0.895,-0.903,-0.9031,-0.9031,-0.9031,0,0,-0.9325,-0.9279,-0.927,-0.9252,-0.9216,-0.9189,-0.9154,-0.9118,-0.91,-0.9072,-0.9042,-0.8996,-0.9001,-0.8979,-0.8971,-0.8949,-0.8912,-0.8956,-0.8956,-0.8949,-0.886,-0.8857,-0.885,-0.8912,-0.891,-0.8909,-0.8863,0,-0.9279,-0.9216,-0.9203,-0.9148,-0.9117,-0.9113,-0.9083,-0.9057,-0.9043,-0.9014,-0.8998,-0.8966,-0.8974,-0.8962,-0.8939,-0.8921,-0.8894,-0.8924,-0.8884,-0.8883,-0.8892,-0.8841,-0.8837,-0.8795,-0.8857,-0.8856,-0.8855,0,-0.9216,-0.9187,-0.9129,-0.9098,-0.9085,-0.9057,-0.9024,-0.8997,-0.8969,-0.896,-0.8937,-0.8931,-0.8895,-0.8911,-0.8862,-0.8883,-0.8866,-0.8855,-0.8853,-0.8848,-0.8867,-0.8836,-0.8781,-0.8775,-0.8845,-0.8846,-0.8847,0,-0.9188,-0.9134,-0.9093,-0.9078,-0.904,-0.9021,-0.9005,-0.8978,-0.8958,-0.8929,-0.8916,-0.8883,-0.8865,-0.8841,-0.8827,-0.884,-0.8778,-0.8793,-0.877,-0.8771,-0.8757,-0.8758,-0.8699,-0.8746,-0.8747,-0.8747,-0.8747,0,-0.9138,-0.9103,-0.908,-0.9054,-0.9015,-0.9002,-0.8963,-0.8947,-0.8923,-0.8895,-0.889,-0.8864,-0.8847,-0.8819,-0.8808,-0.8769,-0.8761,-0.8753,-0.875,-0.8753,-0.8754,-0.8742,-0.8744,-0.8745,-0.8745,-0.8746,-0.8746,0,-0.91,-0.9083,-0.9038,-0.9006,-0.8997,-0.897,-0.8943,-0.8919,-0.8905,-0.8869,-0.886,-0.8838,-0.8804,-0.8788,-0.8746,-0.8739,-0.8695,-0.8695,-0.8705,-0.8704,-0.8682,-0.8684,-0.8613,-0.8603,-0.8656,-0.8656,-0.8655,0,-0.9069,-0.9042,-0.9008,-0.8989,-0.8972,-0.8941,-0.892,-0.8906,-0.8885,-0.8851,-0.8831,-0.8797,-0.877,-0.8716,-0.8697,-0.8665,-0.8664,-0.8641,-0.8659,-0.8663,-0.8664,-0.8666,-0.8664,-0.8638,-0.8637,-0.8637,-0.8636,0,-0.9016,-0.9009,-0.898,-0.8947,-0.8923,-0.8897,-0.8871,-0.8856,-0.8838,-0.8815,-0.878,-0.8759,-0.8717,-0.8683,-0.8651,-0.8634,-0.8633,-0.8631,-0.8624,-0.8627,-0.8634,-0.863,-0.8696,-0.8633,-0.8633,-0.8633,-0.8633,-0.8634,-0.8981,-0.8957,-0.8929,-0.8897,-0.8876,-0.8853,-0.8829,-0.8812,-0.8783,-0.8747,-0.8741,-0.8704,-0.8678,-0.8634,-0.8617,-0.8588,-0.8594,-0.8584,-0.8581,-0.8579,-0.8578,-0.8639,-0.8582,-0.8583,-0.8583,-0.8583,-0.8583,0,-0.8928,-0.8911,-0.8881,-0.8845,-0.882,-0.8821,-0.8793,-0.8772,-0.874,-0.8715,-0.8688,-0.8649,-0.8617,-0.8596,-0.8563,-0.8545,-0.8544,-0.8537,-0.8539,-0.8535,-0.8575,-0.8584,-0.8539,-0.8539,-0.8539,-0.8539,-0.8539,-0.8539,-0.8898,-0.8858,-0.8848,-0.8798,-0.8781,-0.8745,-0.8729,-0.8707,-0.8688,-0.8645,-0.8618,-0.8604,-0.8581,-0.8547,-0.8519,-0.8513,-0.8502,-0.8495,-0.849,-0.8528,-0.8532,-0.8537,-0.8545,-0.8493,-0.8493,-0.8453,-0.8453,-0.8452]},{"header":{"parameterUnit":"m.s-1","parameterCategory":1,"la1":30.2991,"la2":30.254,"lo1":-89.0895,"lo2":-89.0444,"dy":0.0017,"dx":0.0017,"nx":28,"ny":28,"refTime":"2025-09-11T09:00:00:Z","depth":0,"parameterNumber":3,"parameterNumberName":"V-component_of_WINDS"},"data":[0,0,0,0,0,0,0,0,0,0,0,0,0,0,0,0,0,0,0,0,0,0,0,0,0,0,0,0,0,0,0,0,0,0,0,0,0,0,0,0,0,0,0,0,0,0,0,0,0,0,0,0,0,0,0,0,0,0,0.5487,0.5487,0,0.5508,0.5509,0.5509,0.5439,0.5437,0.5434,0.5432,0.5456,0.5459,0.5461,0,0,0,0,0,0,0,0,0,0,0,0,0,0.5385,0.5387,0.5487,0.5487,0.5487,0.5508,0.5509,0.5509,0.5439,0.5436,0.5434,0.5431,0.5455,0.5458,0.5461,0,0,0,0,0,0,0,0,0,0,0,0,0,0.542,0.5388,0.5487,0.5455,0.5452,0.5508,0.5509,0.5509,0.544,0.5436,0.5433,0.543,0.5454,0.5458,0.5462,0.555,0,0,0.5474,0.5476,0,0,0,0,0,0,0,0,0.5418,0.5424,0.5459,0.5457,0.5454,0.5468,0.5481,0.5523,0.544,0.5445,0.5432,0.5429,0.5463,0.5466,0.5477,0.5551,0.5552,0.5474,0.5477,0.5478,0.5479,0,0,0,0,0,0,0,0.5416,0.5423,0.5495,0.546,0.5457,0.5439,0.5441,0.5489,0.5471,0.5444,0.5439,0.5442,0.5461,0.5473,0.5477,0.5553,0.5474,0.5478,0.548,0.5482,0.5696,0.5699,0,0,0,0,0,0,0.5417,0.5421,0.5495,0.5496,0.5428,0.5444,0.5446,0.5467,0.5471,0.5468,0.5445,0.5439,0.5468,0.5472,0.5477,0.5577,0.5478,0.5482,0.5484,0.5693,0.5697,0.57,0,0,0,0,0,0,0.5416,0.5425,0.5494,0.5457,0.5465,0.5449,0.5473,0.5469,0.5481,0.5471,0.5468,0.5461,0.5466,0.5472,0.5531,0.5577,0.5484,0.5487,0.5689,0.5694,0.5699,0.578,0,0,0,0,0,0,0.5413,0.5424,0.5458,0.5458,0.5467,0.5548,0.5476,0.5471,0.5488,0.548,0.5485,0.5483,0.5464,0.5526,0.5535,0.5581,0.549,0.5685,0.5691,0.5697,0.5773,0.5787,0.5799,0,0,0,0,0,0.5409,0.5481,0.546,0.5469,0.5508,0.5551,0.5556,0.5531,0.5492,0.5525,0.5518,0.5483,0.5571,0.5533,0.5543,0.559,0.5682,0.5689,0.5697,0.5767,0.5785,0.5799,0,0,0,0,0,0,0.5488,0.5481,0.5457,0.5532,0.5542,0.5539,0.558,0.5551,0.5573,0.5565,0.5534,0.5536,0.56,0.5602,0.5559,0.5674,0.562,0.563,0.567,0.5686,0.5699,0.5696,0.5494,0,0,0,0,0,0.5514,0.5549,0.5541,0.5607,0.5613,0.5596,0.5614,0.5594,0.5604,0.5608,0.5606,0.5617,0.5646,0.5667,0.5694,0.5774,0.5772,0.5811,0.5824,0.5835,0.5843,0.5881,0.5898,0.5725,0.5725,0.5725,0,0,0.5568,0.5568,0.5593,0.5623,0.5629,0.5664,0.56,0.5642,0.5668,0.5615,0.5669,0.5668,0.5679,0.5747,0.5778,0.575,0.5891,0.5845,0.5853,0.5855,0.5891,0.5907,0.5922,0.573,0.5729,0.5729,0,0,0.5684,0.5689,0.5742,0.5749,0.5758,0.5745,0.5759,0.5759,0.5756,0.581,0.577,0.5801,0.5854,0.5861,0.5872,0.5989,0.5956,0.5999,0.6066,0.6104,0.6117,0.6129,0.6167,0.6181,0.6007,0.6008,0.6008,0,0.575,0.5802,0.5774,0.5817,0.583,0.5783,0.5835,0.5844,0.5862,0.5872,0.5841,0.5904,0.5908,0.5976,0.6004,0.6016,0.6028,0.5997,0.6117,0.6129,0.614,0.6175,0.619,0.6013,0.6012,0.6011,0.6011,0,0.588,0.5917,0.5959,0.5975,0.5994,0.6042,0.6021,0.6043,0.6021,0.6012,0.6066,0.6069,0.6094,0.611,0.609,0.6174,0.6157,0.6123,0.6067,0.6161,0.6194,0.6208,0.6019,0.6018,0.6016,0.6015,0,0,0.6046,0.6044,0.606,0.6065,0.607,0.6098,0.6143,0.6167,0.6184,0.6199,0.6234,0.6279,0.6246,0.6259,0.624,0.6273,0.636,0.6234,0.6234,0.6254,0.6449,0.6472,0.6488,0.634,0.6342,0.6344,0.6447,0,0.6156,0.6231,0.6207,0.6283,0.6315,0.6269,0.6308,0.6316,0.6308,0.6334,0.6326,0.6356,0.6313,0.6319,0.6351,0.6343,0.6398,0.6336,0.637,0.6372,0.6365,0.6506,0.6531,0.6628,0.646,0.6462,0.6464,0,0.6295,0.6311,0.639,0.6387,0.6399,0.6435,0.6452,0.6478,0.6485,0.6477,0.649,0.6463,0.6505,0.6452,0.6509,0.6467,0.648,0.6479,0.6482,0.6481,0.6421,0.6506,0.6658,0.6671,0.6484,0.6483,0.6481,0,0.6402,0.6445,0.6496,0.6503,0.6502,0.6527,0.6528,0.6531,0.6546,0.6562,0.657,0.6592,0.6604,0.6621,0.6599,0.6563,0.6659,0.6605,0.6651,0.6652,0.6671,0.6669,0.6824,0.6686,0.6686,0.6685,0.6685,0,0.6526,0.6575,0.6544,0.6575,0.6628,0.66,0.6653,0.6649,0.6652,0.6681,0.6646,0.6674,0.6646,0.6671,0.6656,0.6703,0.671,0.6703,0.6698,0.6704,0.6704,0.671,0.6701,0.6689,0.6688,0.6688,0.6687,0,0.6654,0.6635,0.6688,0.6681,0.6681,0.672,0.6714,0.6743,0.6732,0.6769,0.6776,0.676,0.6788,0.6769,0.6798,0.6787,0.6848,0.6836,0.6845,0.684,0.6887,0.6881,0.7047,0.7066,0.6919,0.6921,0.6922,0,0.6732,0.6768,0.6765,0.6781,0.6783,0.6811,0.6824,0.6798,0.6814,0.6823,0.6849,0.6874,0.6891,0.6938,0.6928,0.695,0.6935,0.6991,0.6938,0.6942,0.6931,0.6927,0.6929,0.7001,0.7003,0.7004,0.7006,0,0.6871,0.686,0.688,0.6897,0.6914,0.6927,0.6937,0.6953,0.6926,0.6945,0.6972,0.6986,0.7014,0.7038,0.7055,0.7055,0.7025,0.7023,0.7034,0.7039,0.7042,0.7037,0.6871,0.7019,0.7017,0.7016,0.7016,0.7015,0.6974,0.7002,0.7003,0.7027,0.7031,0.704,0.7065,0.7057,0.7078,0.7098,0.7082,0.7113,0.7117,0.7136,0.714,0.7164,0.7141,0.7158,0.7162,0.7166,0.717,0.7041,0.7168,0.7168,0.7167,0.7167,0.7167,0,0.7108,0.7105,0.7128,0.7141,0.7159,0.7129,0.7138,0.7155,0.7182,0.7188,0.7206,0.7235,0.7258,0.725,0.7269,0.729,0.7276,0.7296,0.7292,0.7292,0.7192,0.7178,0.7306,0.7306,0.7306,0.7306,0.7306,0.7306,0.7179,0.7224,0.7212,0.7259,0.7256,0.7286,0.7293,0.73,0.7304,0.7338,0.7356,0.7351,0.735,0.7369,0.7388,0.7385,0.7392,0.7415,0.7407,0.7313,0.7299,0.7286,0.7273,0.7418,0.7418,0.7504,0.7505,0.7506]}]]